Skip Page Navigation
NASA JPL Caltech
NASA Logo - Jet Propulsion Laboratory + View the NASA Portal
+ Center for Near-Earth Object Studies
JPL Home Earth Solar System Stars & Galaxies Technology
JPL Solar System Dynamics
BODIES ORBITS EPHEMERIDES TOOLS PHYSICAL DATA DISCOVERY FAQ SITE MAP
IMPORTANT: The SSD Announcement email list is now available. Major changes are coming in the near future, including possible hostname and/or URL changes. To be notified of such changes, subscribe to this email list.

Please visit this page for more details.


JPL Small-Body Database Browser
Search: [ help ]  
37152 (2000 VV56)
Classification: Mars-crossing Asteroid          SPK-ID: 2037152
Ephemeris | Orbit Diagram | Orbital Elements | Mission Design | Physical Parameters | Discovery Circumstances | Close-Approach Data ]

[ show orbit diagram ]
Orbital Elements at Epoch 2459000.5 (2020-May-31.0) TDB
Reference: JPL 32 (heliocentric ecliptic J2000)
 Element Value Uncertainty (1-sigma)   Units 
e .2951709801037866 3.3961e-08  
a 2.307947638092393 6.9863e-09 au
q 1.626708471728442 7.9146e-08 au
i 7.159993815108138 4.4708e-06 deg
node 21.7614767182974 2.5752e-05 deg
peri 246.2633219867473 2.657e-05 deg
M 345.8219668630596 7.0997e-06 deg
tp 2459050.937185073218
(2020-Jul-20.43718507)
2.5335e-05 TDB
period 1280.670347641521
3.51
5.815e-06
1.592e-08
d
yr
n .2811027839154511 1.2764e-09 deg/d
Q 2.989186804456343 9.0485e-09 au
  Orbit Determination Parameters
   # obs. used (total)      2018  
   data-arc span      8628 days (23.62 yr)  
   first obs. used      1996-09-13  
   last obs. used      2020-04-28  
   planetary ephem.      DE431  
   SB-pert. ephem.      SB431-N16  
   condition code      0  
   norm. resid. RMS      .46084  
   source      ORB  
   producer      Otto Matic  
   solution date      2020-May-20 08:22:26  

Additional Information
 Earth MOID = .627972 au 
 Jupiter MOID = 2.16214 au 
 T_jup = 3.517 
[ show covariance matrix ]

Ephemeris | Orbit Diagram | Orbital Elements | Mission Design | Physical Parameters | Discovery Circumstances | Close-Approach Data ]

Physical Parameter Table
Parameter Symbol Value Units Sigma Reference Notes
absolute magnitude H 13.5   n/a MPO381545  

37152 (2000 VV56)          Discovered 2000-Nov-03 by LINEAR at Socorro
Reference: 20020227/Numbers.arcLast Updated: 2004-04-19

[ show close-approach data ]
Alternate Designations
 2000 VV56 = 1936 PE = 1950 OG = 2001 DG52 
Ephemeris | Orbit Diagram | Orbital Elements | Mission Design | Physical Parameters | Discovery Circumstances | Close-Approach Data ]
ABOUT SSD CREDITS/AWARDS PRIVACY/COPYRIGHT GLOSSARY LINKS
FirstGov 2020-Jun-06 21:52 UT
(server date/time)  
NASA Home Page
Site Manager:   Ryan S. Park
Webmaster  Alan B. Chamberlin